Erzincan, Turkey

11:22 PM +03 on April 23, 2017 (GMT +0300)
Erzincan

Weather History for LTCD - March, 2013

Change the Weather History Date:

Monday, March 25, 2013

  Actual Average Record
Temperature  
Mean Temperature 38 °F -  
Max Temperature 52 °F 60 °F - ()
Min Temperature 23 °F 38 °F - ()
Degree Days  
Heating Degree Days 28    
Moisture  
Dew Point 26 °F    
Average Humidity 61    
Maximum Humidity 87    
Minimum Humidity 26    
Precipitation  
Precipitation 0.00 in 0.06 in - ()
Sea Level Pressure  
Sea Level Pressure 30.14 in    
Wind  
Wind Speed 2 mph ()    
Max Wind Speed 5 mph    
Max Gust Speed -    
Visibility 6.4 miles    
Events      
T = Trace of Precipitation, MM = Missing Value Source: Averaged Metar Reports

Daily Weather History Graph

Daily Weather History Graph

Search for Another Location

Airport or City:

Trip Planner

Search our weather history database for the weather conditions in past years. The results will help you decide how hot, cold, wet, or windy it might be!

Date:

Astronomy

Mar. 25, 2013 Rise Set
Actual Time 5:17 AM EET 5:39 PM EET
Civil Twilight 4:50 AM EET 6:06 PM EET
Nautical Twilight 4:18 AM EET 6:37 PM EET
Astronomical Twilight 3:46 AM EET 7:10 PM EET
Moon 3:47 PM EET (3/25) 3:48 AM EET (3/25)
Length of Visible Light 13h 15m
Length of Day
12h 21m
Waxing Gibbous, 95% of the Moon is Illuminated
Mar 25
Waxing Gibbous
Mar 27
Full
Apr 3
Last Quarter
Apr 10
New
Apr 18
First Quarter

Hourly Weather History & Observations

Time (EET) Temp. Windchill Dew Point Humidity Pressure Visibility Wind Dir Wind Speed Gust Speed Precip Events Conditions
12:50 AM 28.4 °F 24.6 °F 21.2 °F 74% 30.15 in - West 3.5 mph - N/A   Clear
1:50 AM 28.4 °F - 23.0 °F 80% 30.15 in - NE 1.2 mph - N/A   Clear
2:00 AM 28 °F - 22 °F 69%  in 6 mi NE 1.2 mph - -  
2:50 AM 24.8 °F - 21.2 °F 86% 30.15 in - Calm Calm - N/A   Clear
3:50 AM 26.6 °F - 23.0 °F 86% 30.18 in - Variable 1.2 mph - N/A   Clear
4:50 AM 24.8 °F - 21.2 °F 86% 30.18 in - Calm Calm - N/A   Clear
5:50 AM 24.8 °F - 21.2 °F 86% 30.18 in - Calm Calm - N/A   Clear
6:50 AM 30.2 °F - 24.8 °F 80% 30.21 in - Calm Calm - N/A   Clear
7:50 AM 35.6 °F - 23.0 °F 60% 30.21 in 6.2 mi Calm Calm - N/A   Partly Cloudy
8:00 AM 35 °F - 23 °F 49%  in 9 mi Calm Calm - -   Scattered Clouds
8:50 AM 39.2 °F 35.9 °F 23.0 °F 52% 30.21 in 6.2 mi ESE 4.6 mph - N/A   Partly Cloudy
9:50 AM 41.0 °F - 21.2 °F 45% 30.21 in - Variable 2.3 mph - N/A   Clear
10:50 AM 44.6 °F - 21.2 °F 39% 30.21 in - Variable 2.3 mph - N/A   Clear
11:50 AM 46.4 °F 45.2 °F 23.0 °F 40% 30.18 in - NNE 3.5 mph - N/A   Clear
12:50 PM 50.0 °F - 24.8 °F 37% 30.15 in - East 3.5 mph - N/A   Clear
1:50 PM 50.0 °F - 26.6 °F 40% 30.12 in - Variable 2.3 mph - N/A   Clear
2:00 PM 50 °F - 26 °F 26%  in 6 mi SE 4.6 mph - -  
2:50 PM 51.8 °F - 24.8 °F 35% 30.12 in - Variable 2.3 mph - N/A   Clear
3:50 PM 51.8 °F - 28.4 °F 41% 30.09 in - Variable 2.3 mph - N/A   Clear
4:50 PM 51.8 °F - 26.6 °F 38% 30.09 in - SSE 3.5 mph - N/A   Clear
5:50 PM 48.2 °F - 28.4 °F 46% 30.09 in - South 2.3 mph - N/A   Clear
6:50 PM 44.6 °F - 30.2 °F 57% 30.09 in - Calm Calm - N/A   Clear
7:50 PM 41.0 °F - 32.0 °F 70% 30.12 in 6.2 mi NW 1.2 mph - N/A   Scattered Clouds
8:00 PM 41 °F - 32 °F 62%  in 6 mi NW 1.2 mph - -   Scattered Clouds
8:50 PM 39.2 °F 37.0 °F 30.2 °F 70% 30.12 in 6.2 mi WNW 3.5 mph - N/A   Scattered Clouds
9:50 PM 37.4 °F - 32.0 °F 81% 30.09 in 6.2 mi Calm Calm - N/A   Mostly Cloudy
10:50 PM 37.4 °F - 32.0 °F 81% 30.09 in 6.2 mi Calm Calm - N/A   Mostly Cloudy
11:50 PM 35.6 °F - 32.0 °F 87% 30.09 in 6.2 mi Calm Calm - N/A   Mostly Cloudy